Location: Peach Mountain Observatory
(42.3967°N, 83.9367°W)
Time: 08:50:58
(UTC-05:00)

Vanguard 1 - Visible Passes

Search period start: 17 January 2020 00:00
Search period end: 27 January 2020 00:00
Orbit: 651 x 3832 km, 34.2° (Epoch: 16 January)

Date Brightness Start Highest point End Pass type
(mag) Time Alt. Az. Time Alt. Az. Time Alt. Az.
17 Jan 11.1 18:47:42 10° SSW 18:51:43 24° SSE 18:55:26 15° ESE visible
17 Jan 11.6 21:05:26 10° WSW 21:08:09 29° SW 21:08:09 29° SW visible
18 Jan 10.9 19:07:59 10° SW 19:12:20 31° SSE 19:15:15 22° ESE visible
18 Jan 12.0 21:26:10 10° WSW 21:27:58 21° WSW 21:27:58 21° WSW visible
19 Jan 10.7 19:28:27 10° SW 19:33:01 36° SSE 19:35:05 29° SE visible
19 Jan 12.4 21:46:58 10° WSW 21:47:48 15° WSW 21:47:48 15° WSW visible
20 Jan 10.6 19:49:03 10° WSW 19:53:46 40° S 19:54:55 37° SE visible
21 Jan 10.7 20:09:44 10° WSW 20:14:36 41° S 20:14:45 41° S visible
22 Jan 10.9 18:12:06 10° SW 18:15:54 27° SSE 18:20:34 10° ESE visible
22 Jan 10.9 20:30:30 10° WSW 20:34:36 38° SSW 20:34:36 38° SSW visible
23 Jan 10.7 18:32:36 10° SW 18:36:36 31° SSE 18:41:43 10° ESE visible
23 Jan 11.3 20:51:19 10° WSW 20:54:27 30° SW 20:54:27 30° SW visible
24 Jan 10.6 18:53:15 10° WSW 18:57:22 34° S 19:01:37 15° ESE visible
24 Jan 11.8 21:12:13 10° WSW 21:14:20 22° SW 21:14:20 22° SW visible
25 Jan 10.6 19:13:58 10° WSW 19:18:10 35° S 19:21:30 19° SE visible
25 Jan 12.3 21:33:15 10° WSW 21:34:13 15° WSW 21:34:13 15° WSW visible
26 Jan 10.7 19:34:46 10° WSW 19:38:58 33° S 19:41:26 24° SE visible
